This is the latest recevied weather packets stored in our database for station/object IK2ILW-4. If no packets are shown the sender has not sent any weather packets the latest 10 day(s).
| Time | Temp. | Humidity | Pressure | Rain* | Wind** | Luminosity | Snow |
|---|---|---|---|---|---|---|---|
| 1777918955 | 11.11° C | 51% | 1017.8 hPa | 0 mm | - | 0 W/m² | - |
| 1777918655 | 11.11° C | 52% | 1017.8 hPa | 0 mm | - | 5 W/m² | - |
| 1777918355 | 11.11° C | 51% | 1017.8 hPa | 0 mm | - | 7 W/m² | - |
| 1777918071 | 11.67° C | 54% | 1017.8 hPa | 0 mm | - | 11 W/m² | - |
| 1777917766 | 11.67° C | 52% | 1017.8 hPa | 0 mm | - | 16 W/m² | - |
| 1777917465 | 11.67° C | 57% | 1018.7 hPa | 0 mm | - | 21 W/m² | - |
| 1777917161 | 12.22° C | 59% | 1018.7 hPa | 0 mm | - | 28 W/m² | - |
| 1777916861 | 12.22° C | 55% | 1018.7 hPa | 0 mm | - | 35 W/m² | - |
| 1777916561 | 12.78° C | 49% | 1018.7 hPa | 0 mm | - | 63 W/m² | - |
| 1777916257 | 12.78° C | 49% | 1018.7 hPa | 0 mm | - | 69 W/m² | - |
| 1777915973 | 12.78° C | 49% | 1018.7 hPa | 0 mm | - | 93 W/m² | - |
| 1777915668 | 12.78° C | 53% | 1017.8 hPa | 0 mm | - | 100 W/m² | - |
| 1777915369 | 12.78° C | 53% | 1017.8 hPa | 0 mm | - | 146 W/m² | - |
| 1777915065 | 12.78° C | 54% | 1017.8 hPa | 0 mm | - | 111 W/m² | - |
| 1777914761 | 12.22° C | 53% | 1018.7 hPa | 0 mm | - | 123 W/m² | - |
| 1777914459 | 12.22° C | 54% | 1018.7 hPa | 0 mm | - | 137 W/m² | - |
| 1777914159 | 11.67° C | 54% | 1018.7 hPa | 0 mm | - | 121 W/m² | - |
| 1777913858 | 12.22° C | 53% | 1018.7 hPa | 0 mm | - | 90 W/m² | - |
| 1777913557 | 12.22° C | 54% | 1018.7 hPa | 0 mm | - | 90 W/m² | - |
| 1777913253 | 12.78° C | 56% | 1018.7 hPa | 0 mm | - | 113 W/m² | - |
| 1777912969 | 12.78° C | 58% | 1018.7 hPa | 0 mm | - | 130 W/m² | - |
| 1777912664 | 13.33° C | 59% | 1018.7 hPa | 0 mm | - | 288 W/m² | - |
| 1777912360 | 12.78° C | 58% | 1018.7 hPa | 0 mm | - | 348 W/m² | - |
| 1777912059 | 12.22° C | 60% | 1017.8 hPa | 0 mm | - | 348 W/m² | - |
| 1777911759 | 12.22° C | 60% | 1017.8 hPa | 0 mm | - | 295 W/m² | - |
* Rain since midnight (hover to see other rain measurements)
** Current wind speed in m/s (hover to see current wind gust speed)